Location: Quebec
(46.8000°N, 71.2500°W)
Time: 22:14:53
(UTC-04:00)

OTV 5 (USA 277) - Pass Details

Date: 14 October 2017
Orbit: 404 x 417 km, 43.0° (Epoch: 07 September)

Event Time Altitude Azimuth Distance (km) Brightness Sun altitude
Rises 19:33:59 0° 255° (WSW) 2,353 ? -17.0°
Reaches altitude 10° 19:36:09 10° 248° (WSW) 1,490 ? -17.3°
Maximum altitude 19:39:22 42° 176° (S) 603 ? -17.9°
Enters shadow 19:39:45 40° 155° (SSE) 625 ? -18.0°
